Location: Unspecified
(50.7693°N, 0.0000°E)
Time: 22:53:00
(UTC+00:00)

A-11 Canister half - Pass Details

Date: 22 June 2019
Orbit: 1526 x 1683 km, 47.3° (Epoch: 15 July)

Event Time Altitude Azimuth Distance (km) Brightness Sun altitude
Exits shadow 02:47:12 - 186° (S) 4,616 11.0 -7.3°
Reaches altitude 10° 02:50:50 10° 173° (S) 3,752 10.6 -7.0°
Maximum altitude 02:57:03 20° 131° (SE) 3,012 10.6 -6.4°
Drops below altitude 10° 03:03:11 10° 89° (E) 3,706 11.7 -5.7°
Sets 03:07:14 0° 74° (ENE) 4,683 12.7 -5.3°
